Miscellaneous Local Product
Issued by NWS North Platte, NE

Home | Current Version | Previous Version | Text Only | Print | Product List | Glossary On
Versions: 1 2 3 4 5 6 7 8 9 10 11 12 13 14 15 16 17 18 19 20 21 22 23 24 25 26 27 28 29 30 31 32 33 34 35 36 37 38 39 40 41 42 43 44 45 46 47 48 49 50
000
AXUS43 KLBF 290710
MISLBF


WESTERN AND NORTH CENTRAL NEBRASKA HOURLY WEATHER ROUNDUP
NATIONAL WEATHER SERVICE NORTH PLATTE NE
100 AM CST THU JAN 29 2015

***STATIONS NOT REPORTING VARIABLES SUCH AS SKY/WEATHER OR
PRESSURE ARE PROVIDED BY THE NEBRASKA DEPARTMENT OF
ROADS...RAWS...AND APRS NETWORKS...AND ARE NOT UNDER
NATIONAL WEATHER SERVICE QUALITY CONTROL***

...OBSERVATIONS IN AND NEAR THE EASTERN PANHANDLE OF NEBRASKA...

CITY           SKY/WX    TMP DP  RH WIND       PRES   REMARKS
PINE RIDGE     CLEAR     31  24  75 N14G23    30.33R WCI  21
CHADRON        CLEAR     24  22  91 SE5       30.36R WCI  18
ALLIANCE       CLEAR     29  26  89 NW9       30.31R WCI  20
SIDNEY         CLOUDY    36  28  73 N8        30.31R WCI  30
WHITECLAY        N/A     29  24  81 W14         N/A  WCI  18
CRESCENT LAKE    N/A     28  25  87 N9          N/A  WCI  19
LISCO            N/A     33  26  75 W8          N/A  WCI  26
LEWELLEN         N/A     34  28  76 NW8         N/A  WCI  27
$$

...OBSERVATIONS IN NORTH CENTRAL NEBRASKA...

CITY           SKY/WX    TMP DP  RH WIND       PRES   REMARKS
VALENTINE      CLOUDY    36  25  64 NW21G30   30.27R WCI  25
THEDFORD       CLOUDY    36  29  75 N20G28    30.27R WCI  25
AINSWORTH      CLOUDY    36  29  76 NW20G37   30.24R WCI  25
O`NEILL        CLOUDY    36  32  85 NW23G36   30.18R WCI  24
ORD            CLOUDY    36  29  75 NW23G33   30.18R WCI  24
BROKEN BOW     CLOUDY    37  30  75 N35G45    30.21R WCI  24
BROWNLEE         N/A     36  29  75 N25         N/A  WCI  24
VALENTINE NWR    N/A     34  27  76 N23G39      N/A  WCI  22
SPRINGVIEW       N/A     36  30  79 NW9G17      N/A  WCI  29
HALSEY           N/A     35  30  82 NW16G37     N/A  WCI  25
BREWSTER         N/A     38  32  79 NW24        N/A  WCI  26
ROSE             N/A     37  34  90 SW22        N/A  WCI  25
NEWPORT          N/A     36  31  80 NW29        N/A  WCI  23
SARGENT          N/A     36  30  78 NW10G18     N/A  WCI  28
COMSTOCK         N/A     39  32  75 W25         N/A  WCI  28
EWING            N/A     35  31  87 N12G21      N/A  WCI  27
$$

...OBSERVATIONS IN SOUTHWEST NEBRASKA AND FAR NORTHEAST COLORADO...

CITY           SKY/WX    TMP DP  RH WIND       PRES   REMARKS
WRAY           FAIR      38  33  80 NW10      30.29R WCI  31
HOLYOKE        FAIR      36  30  80 NW7       30.30R WCI  30
IMPERIAL       CLEAR     37  28  70 N20       30.27R WCI  27
OGALLALA       CLEAR     33  29  86 N9        30.29R WCI  25
NORTH PLATTE   CLOUDY    37  29  72 N23G38    30.25R WCI  26
MCCOOK         CLEAR     41  32  70 N21G28    30.23R
LEXINGTON      CLOUDY    39  31  73 N23G38    30.21R WCI  28
BRADY            N/A     38  30  73 SW5G16      N/A  WCI  34
GOTHENBURG       N/A     38  29  70 NW16        N/A  WCI  29
CALLAWAY         N/A     35  32  89 N20         N/A  WCI  24
$$

...NORTH PLATTE AREA...

CITY           SKY/WX    TMP DP  RH WIND       PRES   REMARKS
AIRPORT        CLOUDY    37  29  72 N23G38    30.25R WCI  26
DOWNTOWN         N/A     37  29  73 N14G25      N/A  WCI  28
$$

...SOME WEATHER OBSERVATIONS FROM AROUND THE REGION...

CITY           SKY/WX    TMP DP  RH WIND       PRES   REMARKS
DENVER         MOCLDY    37  29  72 W8        30.36R WCI  31
LARAMIE        FLURRIES  28  27  96 W5        30.34R WCI  23
CHEYENNE       CLOUDY    36  25  64 N12       30.33R WCI  28
SCOTTSBLUFF    CLOUDY    38  27  64 NW14      30.34R WCI  30
RAPID CITY     CLOUDY    34  26  72 N26G33    30.33R WCI  21
PIERRE         CLOUDY    36  29  75 NW22G29   30.24R WCI  25
WINNER         CLOUDY    37  29  72 NW21      30.24R WCI  26
SIOUX FALLS    CLOUDY    34  27  75 N25G32    30.04R WCI  21
OMAHA          CLOUDY    38  32  79 N35G44    29.99R WCI  25
GRAND ISLAND   CLOUDY    37  30  75 N35G48    30.16R WCI  24
KANSAS CITY    PTCLDY    48  37  65 NW20G32   29.90R
WICHITA        PTCLDY    52  30  43 NW13      30.07R
HAYS           CLEAR     48  30  49 NW17      30.14R
LIBERAL        CLEAR     41  30  65 NW10      30.23S
GOODLAND       CLEAR     39  33  79 N14       30.26R WCI  31
$$



USA.gov is the U.S. government's official web portal to all federal, state and local government web resources and services.